| time (UTC) | temp F | wind direction | speed MPH | gust MPH | rain 1hr in | rain 24hr in | rain mn in | humidity % | barometer mb |
| 20260902071404 | 55 | 35 | 0.0 | 0.0 | 0.00 | 0.00 | 0.00 | 10 | 1010.2 |
| 20260902070901 | 56 | 51 | 0.0 | 0.0 | 0.00 | 0.00 | 0.00 | 10 | 1010.2 |
| 20260902070356 | 56 | 51 | 0.0 | 0.0 | 0.00 | 0.00 | 0.00 | 10 | 1010.2 |
| 20260902065854 | 57 | 61 | 0.0 | 0.0 | 0.00 | 0.00 | 0.00 | 10 | 1010.2 |
| 20260902065350 | 59 | 45 | 0.0 | 0.0 | 0.00 | 0.00 | 0.00 | 10 | 1010.5 |
| 20260902064845 | 61 | 60 | 0.0 | 0.0 | 0.00 | 0.00 | 0.00 | 10 | 1010.3 |
| 20260902064341 | 60 | 70 | 0.0 | 0.0 | 0.00 | 0.00 | 0.00 | 10 | 1010.2 |
| 20260902063836 | 60 | 70 | 0.0 | 0.0 | 0.00 | 0.00 | 0.00 | 10 | 1010.3 |
| 20260902063331 | 58 | 95 | 0.0 | 0.0 | 0.00 | 0.00 | 0.00 | 10 | 1010.4 |
| 20260902062825 | 57 | 65 | 0.0 | 0.0 | 0.00 | 0.00 | 0.00 | 10 | 1010.3 |
| 20260902062320 | 58 | 75 | 0.0 | 0.0 | 0.00 | 0.00 | 0.00 | 10 | 1010.3 |
| 20260902061819 | 58 | 89 | 0.0 | 0.0 | 0.00 | 0.00 | 0.00 | 10 | 1010.3 |
| 20260902061315 | 58 | 72 | 0.0 | 0.0 | 0.00 | 0.00 | 0.00 | 10 | 1010.4 |
| 20260902060811 | 58 | 82 | 0.0 | 0.0 | 0.00 | 0.00 | 0.00 | 10 | 1010.4 |
| 20260902060306 | 58 | 107 | 0.0 | 0.0 | 0.00 | 0.00 | 0.00 | 10 | 1010.3 |
| 20260902055801 | 57 | 98 | 0.0 | 0.0 | 0.00 | 0.00 | 0.00 | 10 | 1010.3 |
| 20260902055253 | 57 | 74 | 0.0 | 0.0 | 0.00 | 0.00 | 0.00 | 10 | 1010.3 |
| 20260902054753 | 57 | 63 | 0.0 | 0.0 | 0.00 | 0.00 | 0.00 | 10 | 1010.5 |
| 20260902054248 | 58 | 61 | 0.0 | 0.0 | 0.00 | 0.00 | 0.00 | 10 | 1010.4 |
| 20260902053744 | 59 | 61 | 0.0 | 0.0 | 0.00 | 0.00 | 0.00 | 10 | 1010.5 |
| 20260902053243 | 59 | 63 | 0.0 | 0.0 | 0.00 | 0.00 | 0.00 | 10 | 1010.2 |
| 20260902052743 | 60 | 67 | 0.0 | 0.0 | 0.00 | 0.00 | 0.00 | 10 | 1010.4 |
| 20260902052238 | 59 | 85 | 0.0 | 0.0 | 0.00 | 0.00 | 0.00 | 10 | 1010.5 |
| 20260902051737 | 59 | 49 | 0.0 | 0.0 | 0.00 | 0.00 | 0.00 | 10 | 1010.4 |
| 20260902051231 | 60 | 59 | 0.0 | 0.0 | 0.00 | 0.00 | 0.00 | 10 | 1010.5 |
| 20260902050727 | 60 | 54 | 0.0 | 0.0 | 0.00 | 0.00 | 0.00 | 10 | 1010.4 |
| 20260902050217 | 60 | 65 | 0.0 | 0.0 | 0.00 | 0.00 | 0.00 | 10 | 1010.4 |
| 20260902045716 | 61 | 65 | 0.0 | 0.0 | 0.00 | 0.00 | 0.00 | 10 | 1010.8 |
| 20260902045213 | 62 | 69 | 0.0 | 0.0 | 0.00 | 0.00 | 0.00 | 10 | 1010.4 |
| 20260902044708 | 61 | 97 | 0.0 | 0.0 | 0.00 | 0.00 | 0.00 | 10 | 1010.8 |
| 20260902044204 | 62 | 153 | 0.0 | 0.0 | 0.00 | 0.00 | 0.00 | 10 | 1010.8 |
| 20260902043658 | 62 | 236 | 0.0 | 0.0 | 0.00 | 0.00 | 0.00 | 10 | 1010.7 |
| 20260902043154 | 63 | 189 | 0.0 | 0.0 | 0.00 | 0.00 | 0.00 | 10 | 1010.7 |
| 20260902042653 | 65 | 202 | 0.0 | 0.0 | 0.00 | 0.00 | 0.00 | 10 | 1010.7 |
| 20260902042149 | 66 | 180 | 0.0 | 0.0 | 0.00 | 0.00 | 0.00 | 10 | 1010.7 |
| 20260902041648 | 66 | 176 | 0.0 | 1.0 | 0.00 | 0.00 | 0.00 | 10 | 1010.7 |
| 20260902041143 | 66 | 181 | 0.0 | 1.0 | 0.00 | 0.00 | 0.00 | 10 | 1010.7 |
| 20260902040642 | 66 | 187 | 0.0 | 1.0 | 0.00 | 0.00 | 0.00 | 10 | 1010.7 |
| 20260902040138 | 66 | 188 | 0.0 | 1.0 | 0.00 | 0.00 | 0.00 | 10 | 1010.7 |
| 20260902035636 | 66 | 186 | 0.0 | 0.0 | 0.00 | 0.00 | 0.00 | 10 | 1010.7 |
| 20260902035132 | 64 | 170 | 0.0 | 0.0 | 0.00 | 0.00 | 0.00 | 10 | 1010.8 |
| 20260902034631 | 64 | 119 | 0.0 | 0.0 | 0.00 | 0.00 | 0.00 | 10 | 1010.8 |
| 20260902034125 | 65 | 169 | 0.0 | 0.0 | 0.00 | 0.00 | 0.00 | 10 | 1011.0 |
| 20260902033624 | 65 | 185 | 0.0 | 0.0 | 0.00 | 0.00 | 0.00 | 10 | 1010.8 |
| 20260902033119 | 64 | 154 | 0.0 | 0.0 | 0.00 | 0.00 | 0.00 | 10 | 1010.9 |
| 20260902032618 | 62 | 137 | 0.0 | 0.0 | 0.00 | 0.00 | 0.00 | 10 | 1010.8 |
| 20260902032112 | 63 | 84 | 0.0 | 0.0 | 0.00 | 0.00 | 0.00 | 10 | 1010.9 |
| 20260902031607 | 64 | 77 | 0.0 | 0.0 | 0.00 | 0.00 | 0.00 | 10 | 1011.0 |
| 20260902031103 | 66 | 163 | 0.0 | 0.0 | 0.00 | 0.00 | 0.00 | 10 | 1010.7 |
| 20260902030558 | 66 | 180 | 0.0 | 0.0 | 0.00 | 0.00 | 0.00 | 10 | 1011.0 |
| 20260902030057 | 67 | 144 | 0.0 | 0.0 | 0.00 | 0.00 | 0.00 | 10 | 1011.0 |
| 20260902025552 | 67 | 159 | 0.0 | 0.0 | 0.00 | 0.00 | 0.00 | 10 | 1011.0 |
| 20260902025047 | 67 | 124 | 0.0 | 0.0 | 0.00 | 0.00 | 0.00 | 10 | 1010.9 |
| 20260902024543 | 67 | 122 | 0.0 | 0.0 | 0.00 | 0.00 | 0.00 | 10 | 1010.7 |
| 20260902024043 | 64 | 134 | 0.0 | 0.0 | 0.00 | 0.00 | 0.00 | 10 | 1010.9 |
| 20260902023538 | 65 | 72 | 0.0 | 0.0 | 0.00 | 0.00 | 0.00 | 10 | 1010.7 |
| 20260902023033 | 69 | 88 | 0.0 | 0.0 | 0.00 | 0.00 | 0.00 | 10 | 1010.7 |
| 20260902022527 | 69 | 157 | 0.0 | 0.0 | 0.00 | 0.00 | 0.00 | 10 | 1010.3 |
| 20260902022023 | 69 | 129 | 0.0 | 0.0 | 0.00 | 0.00 | 0.00 | 10 | 1010.8 |
| 20260902021519 | 69 | 108 | 0.0 | 0.0 | 0.00 | 0.00 | 0.00 | 10 | 1010.7 |
| 20260902021014 | 69 | 157 | 0.0 | 0.0 | 0.00 | 0.00 | 0.00 | 10 | 1010.2 |
| 20260902020509 | 69 | 130 | 0.0 | 0.0 | 0.00 | 0.00 | 0.00 | 10 | 1010.4 |
| 20260902020005 | 70 | 95 | 0.0 | 0.0 | 0.00 | 0.00 | 0.00 | 10 | 1010.7 |
| 20260902015501 | 71 | 132 | 0.0 | 0.0 | 0.00 | 0.00 | 0.00 | 10 | 1010.5 |
| 20260902014956 | 71 | 144 | 0.0 | 0.0 | 0.00 | 0.00 | 0.00 | 10 | 1010.4 |
| 20260902014452 | 73 | 115 | 0.0 | 0.0 | 0.00 | 0.00 | 0.00 | 10 | 1010.2 |
| 20260902013952 | 75 | 143 | 0.0 | 0.0 | 0.00 | 0.00 | 0.00 | 10 | 1010.3 |
| 20260902013447 | 76 | 137 | 0.0 | 0.0 | 0.00 | 0.00 | 0.00 | 10 | 1010.5 |
| 20260902012942 | 77 | 129 | 0.0 | 0.0 | 0.00 | 0.00 | 0.00 | 10 | 1010.2 |
| 20260902012438 | 78 | 108 | 0.0 | 0.0 | 0.00 | 0.00 | 0.00 | 10 | 1010.5 |
| 20260902011933 | 79 | 158 | 0.0 | 0.0 | 0.00 | 0.00 | 0.00 | 10 | 1010.2 |
| 20260902011428 | 79 | 165 | 0.0 | 0.0 | 0.00 | 0.00 | 0.00 | 10 | 1010.3 |
| 20260902010928 | 80 | 164 | 0.0 | 0.0 | 0.00 | 0.00 | 0.00 | 10 | 1010.4 |
| 20260902010423 | 80 | 88 | 0.0 | 0.0 | 0.00 | 0.00 | 0.00 | 10 | 1010.3 |
| 20260902005922 | 81 | 136 | 0.0 | 1.0 | 0.00 | 0.00 | 0.00 | 10 | 1010.2 |
| 20260902005416 | 81 | 161 | 0.0 | 0.0 | 0.00 | 0.00 | 0.00 | 10 | 1010.5 |
| 20260902004912 | 81 | 152 | 0.0 | 0.0 | 0.00 | 0.00 | 0.00 | 10 | 1010.3 |
| 20260902004411 | 81 | 163 | 0.0 | 0.0 | 0.00 | 0.00 | 0.00 | 10 | 1010.8 |
| 20260902003907 | 81 | 167 | 0.0 | 2.0 | 0.00 | 0.00 | 0.00 | 10 | 1010.7 |
| 20260902003402 | 81 | 139 | 0.0 | 2.0 | 0.00 | 0.00 | 0.00 | 10 | 1010.5 |
| 20260902002857 | 81 | 219 | 0.0 | 1.0 | 0.00 | 0.00 | 0.00 | 10 | 1010.5 |
| 20260902002356 | 82 | 155 | 0.0 | 0.0 | 0.00 | 0.00 | 0.00 | 10 | 1010.5 |
| 20260902001852 | 81 | 154 | 1.0 | 1.0 | 0.00 | 0.00 | 0.00 | 10 | 1010.7 |
| 20260902001347 | 82 | 182 | 0.0 | 0.0 | 0.00 | 0.00 | 0.00 | 10 | 1010.5 |
| 20260902000841 | 82 | 195 | 0.0 | 1.0 | 0.00 | 0.00 | 0.00 | 10 | 1010.9 |
| 20260902000337 | 82 | 148 | 0.0 | 0.0 | 0.00 | 0.00 | 0.00 | 10 | 1010.8 |
| 20260901235832 | 82 | 149 | 0.0 | 1.0 | 0.00 | 0.00 | 0.00 | 10 | 1010.8 |
| 20260901235331 | 82 | 141 | 0.0 | 1.0 | 0.00 | 0.00 | 0.00 | 10 | 1010.7 |
| 20260901234826 | 82 | 209 | 0.0 | 0.0 | 0.00 | 0.00 | 0.00 | 10 | 1010.8 |
| 20260901234322 | 82 | 172 | 0.0 | 0.0 | 0.00 | 0.00 | 0.00 | 10 | 1010.5 |
| 20260901233816 | 82 | 118 | 0.0 | 0.0 | 0.00 | 0.00 | 0.00 | 10 | 1010.8 |
| 20260901233311 | 82 | 161 | 0.0 | 0.0 | 0.00 | 0.00 | 0.00 | 10 | 1011.0 |
| 20260901232807 | 82 | 180 | 0.0 | 0.0 | 0.00 | 0.00 | 0.00 | 10 | 1010.9 |
| 20260901232301 | 82 | 168 | 0.0 | 0.0 | 0.00 | 0.00 | 0.00 | 10 | 1011.0 |
| 20260901231758 | 82 | 174 | 0.0 | 0.0 | 0.00 | 0.00 | 0.00 | 10 | 1011.1 |
| 20260901231254 | 82 | 149 | 0.0 | 1.0 | 0.00 | 0.00 | 0.00 | 10 | 1011.0 |
| 20260901230750 | 83 | 183 | 0.0 | 0.0 | 0.00 | 0.00 | 0.00 | 10 | 1011.1 |
| 20260901230249 | 82 | 238 | 0.0 | 0.0 | 0.00 | 0.00 | 0.00 | 10 | 1011.0 |
| 20260901225744 | 82 | 203 | 0.0 | 0.0 | 0.00 | 0.00 | 0.00 | 10 | 1011.4 |
| 20260901225238 | 83 | 197 | 0.0 | 2.0 | 0.00 | 0.00 | 0.00 | 10 | 1011.2 |
| 20260901224734 | 82 | 199 | 0.0 | 0.0 | 0.00 | 0.00 | 0.00 | 10 | 1011.1 |
| 20260901224230 | 83 | 179 | 0.0 | 1.0 | 0.00 | 0.00 | 0.00 | 10 | 1011.5 |
| 20260901223727 | 83 | 195 | 0.0 | 0.0 | 0.00 | 0.00 | 0.00 | 10 | 1011.2 |
| 20260901223221 | 83 | 208 | 0.0 | 1.0 | 0.00 | 0.00 | 0.00 | 10 | 1011.5 |
| 20260901222717 | 84 | 173 | 0.0 | 0.0 | 0.00 | 0.00 | 0.00 | 10 | 1011.3 |
| 20260901222213 | 83 | 230 | 0.0 | 0.0 | 0.00 | 0.00 | 0.00 | 10 | 1011.8 |
| 20260901221709 | 83 | 188 | 0.0 | 0.0 | 0.00 | 0.00 | 0.00 | 10 | 1011.4 |
| 20260901221205 | 83 | 207 | 0.0 | 0.0 | 0.00 | 0.00 | 0.00 | 10 | 1011.8 |
| 20260901220703 | 82 | 222 | 0.0 | 0.0 | 0.00 | 0.00 | 0.00 | 10 | 1011.4 |
| 20260901220203 | 82 | 167 | 0.0 | 0.0 | 0.00 | 0.00 | 0.00 | 10 | 1011.6 |
| 20260901215702 | 82 | 151 | 0.0 | 0.0 | 0.00 | 0.00 | 0.00 | 10 | 1011.9 |
| 20260901215202 | 82 | 182 | 0.0 | 0.0 | 0.00 | 0.00 | 0.00 | 10 | 1012.0 |
| 20260901214659 | 82 | 210 | 0.0 | 1.0 | 0.00 | 0.00 | 0.00 | 10 | 1011.6 |
| 20260901214149 | 82 | 208 | 0.0 | 0.0 | 0.00 | 0.00 | 0.00 | 10 | 1012.0 |
| 20260901213649 | 82 | 168 | 0.0 | 0.0 | 0.00 | 0.00 | 0.00 | 10 | 1012.2 |
| 20260901213143 | 82 | 173 | 0.0 | 2.0 | 0.00 | 0.00 | 0.00 | 10 | 1012.2 |
| 20260901212643 | 81 | 197 | 0.0 | 2.0 | 0.00 | 0.00 | 0.00 | 10 | 1012.3 |
| 20260901212139 | 82 | 203 | 0.0 | 2.0 | 0.00 | 0.00 | 0.00 | 10 | 1012.3 |
| 20260901211634 | 81 | 185 | 0.0 | 2.0 | 0.00 | 0.00 | 0.00 | 10 | 1012.3 |
| 20260901211131 | 80 | 175 | 1.0 | 2.0 | 0.00 | 0.00 | 0.00 | 10 | 1012.3 |
| 20260901210626 | 81 | 177 | 0.0 | 1.0 | 0.00 | 0.00 | 0.00 | 10 | 1012.4 |
| 20260901210122 | 81 | 172 | 0.0 | 1.0 | 0.00 | 0.00 | 0.00 | 10 | 1012.4 |
| 20260901205617 | 82 | 153 | 0.0 | 2.0 | 0.00 | 0.00 | 0.00 | 10 | 1012.4 |
| 20260901205111 | 81 | 174 | 0.0 | 2.0 | 0.00 | 0.00 | 0.00 | 10 | 1012.6 |
| 20260901204607 | 81 | 169 | 0.0 | 2.0 | 0.00 | 0.00 | 0.00 | 10 | 1012.7 |
| 20260901204102 | 80 | 179 | 1.0 | 2.0 | 0.00 | 0.00 | 0.00 | 10 | 1012.7 |
| 20260901203601 | 80 | 169 | 0.0 | 2.0 | 0.00 | 0.00 | 0.00 | 10 | 1012.7 |
| 20260901203056 | 80 | 166 | 0.0 | 0.0 | 0.00 | 0.00 | 0.00 | 10 | 1012.7 |
| 20260901202556 | 81 | 143 | 1.0 | 3.0 | 0.00 | 0.00 | 0.00 | 10 | 1012.9 |
| 20260901202053 | 81 | 171 | 0.0 | 0.0 | 0.00 | 0.00 | 0.00 | 10 | 1013.1 |
| 20260901201548 | 81 | 167 | 0.0 | 0.0 | 0.00 | 0.00 | 0.00 | 10 | 1013.0 |
| 20260901201047 | 82 | 129 | 0.0 | 2.0 | 0.00 | 0.00 | 0.00 | 10 | 1013.1 |
| 20260901200547 | 81 | 162 | 0.0 | 0.0 | 0.00 | 0.00 | 0.00 | 10 | 1013.1 |
| 20260901200042 | 80 | 157 | 0.0 | 3.0 | 0.00 | 0.00 | 0.00 | 10 | 1013.4 |
| 20260901195539 | 80 | 167 | 0.0 | 2.0 | 0.00 | 0.00 | 0.00 | 10 | 1013.2 |
| 20260901195034 | 80 | 180 | 0.0 | 2.0 | 0.00 | 0.00 | 0.00 | 10 | 1013.0 |
| 20260901194529 | 79 | 164 | 1.0 | 3.0 | 0.00 | 0.00 | 0.00 | 10 | 1013.0 |
| 20260901194025 | 80 | 171 | 0.0 | 2.0 | 0.00 | 0.00 | 0.00 | 10 | 1013.5 |
| 20260901193524 | 79 | 169 | 0.0 | 0.0 | 0.00 | 0.00 | 0.00 | 10 | 1013.3 |
| 20260901193020 | 79 | 178 | 1.0 | 2.0 | 0.00 | 0.00 | 0.00 | 10 | 1013.3 |
| 20260901192514 | 80 | 127 | 0.0 | 3.0 | 0.00 | 0.00 | 0.00 | 10 | 1013.6 |
| 20260901192011 | 80 | 129 | 0.0 | 1.0 | 0.00 | 0.00 | 0.00 | 10 | 1013.5 |
| 20260901191506 | 79 | 181 | 1.0 | 2.0 | 0.00 | 0.00 | 0.00 | 10 | 1013.5 |
| 20260901191002 | 79 | 141 | 0.0 | 2.0 | 0.00 | 0.00 | 0.00 | 10 | 1013.5 |
| 20260901190457 | 78 | 177 | 0.0 | 0.0 | 0.00 | 0.00 | 0.00 | 10 | 1013.6 |
| 20260901185955 | 78 | 163 | 0.0 | 3.0 | 0.00 | 0.00 | 0.00 | 10 | 1013.7 |
| 20260901185449 | 78 | 201 | 0.0 | 3.0 | 0.00 | 0.00 | 0.00 | 10 | 1013.9 |
| 20260901184949 | 77 | 170 | 0.0 | 2.0 | 0.00 | 0.00 | 0.00 | 10 | 1014.1 |
| 20260901184444 | 78 | 171 | 1.0 | 2.0 | 0.00 | 0.00 | 0.00 | 10 | 1014.2 |
| 20260901183939 | 78 | 181 | 0.0 | 2.0 | 0.00 | 0.00 | 0.00 | 10 | 1013.9 |
| 20260901183439 | 77 | 165 | 0.0 | 2.0 | 0.00 | 0.00 | 0.00 | 10 | 1014.3 |
| 20260901182935 | 77 | 147 | 0.0 | 2.0 | 0.00 | 0.00 | 0.00 | 10 | 1014.2 |
| 20260901182431 | 77 | 156 | 1.0 | 3.0 | 0.00 | 0.00 | 0.00 | 10 | 1014.4 |
| 20260901181925 | 76 | 182 | 0.0 | 1.0 | 0.00 | 0.00 | 0.00 | 10 | 1014.3 |
| 20260901181420 | 75 | 179 | 0.0 | 0.0 | 0.00 | 0.00 | 0.00 | 10 | 1014.4 |
| 20260901180919 | 75 | 193 | 1.0 | 3.0 | 0.00 | 0.00 | 0.00 | 10 | 1014.8 |
| 20260901180418 | 75 | 187 | 1.0 | 2.0 | 0.00 | 0.00 | 0.00 | 10 | 1014.5 |
| 20260901175917 | 75 | 167 | 1.0 | 2.0 | 0.00 | 0.00 | 0.00 | 10 | 1014.5 |
| 20260901175412 | 74 | 210 | 0.0 | 0.0 | 0.00 | 0.00 | 0.00 | 10 | 1014.7 |
| 20260901174907 | 74 | 146 | 0.0 | 1.0 | 0.00 | 0.00 | 0.00 | 10 | 1014.6 |
| 20260901174403 | 73 | 183 | 0.0 | 2.0 | 0.00 | 0.00 | 0.00 | 10 | 1015.0 |
| 20260901173858 | 73 | 157 | 0.0 | 1.0 | 0.00 | 0.00 | 0.00 | 10 | 1014.6 |
| 20260901173353 | 73 | 174 | 0.0 | 3.0 | 0.00 | 0.00 | 0.00 | 10 | 1014.8 |
| 20260901172849 | 73 | 166 | 0.0 | 1.0 | 0.00 | 0.00 | 0.00 | 10 | 1014.7 |
| 20260901172349 | 73 | 168 | 0.0 | 0.0 | 0.00 | 0.00 | 0.00 | 10 | 1014.6 |
| 20260901171847 | 72 | 210 | 0.0 | 0.0 | 0.00 | 0.00 | 0.00 | 10 | 1015.0 |
| 20260901171346 | 72 | 173 | 0.0 | 0.0 | 0.00 | 0.00 | 0.00 | 10 | 1015.0 |
| 20260901170845 | 71 | 146 | 0.0 | 0.0 | 0.00 | 0.00 | 0.00 | 10 | 1015.1 |
| 20260901170340 | 71 | 143 | 0.0 | 1.0 | 0.00 | 0.00 | 0.00 | 10 | 1015.0 |
| 20260901165834 | 72 | 174 | 0.0 | 0.0 | 0.00 | 0.00 | 0.00 | 10 | 1015.1 |
| 20260901165328 | 71 | 171 | 1.0 | 2.0 | 0.00 | 0.00 | 0.00 | 10 | 1015.0 |
| 20260901164825 | 71 | 174 | 1.0 | 2.0 | 0.00 | 0.00 | 0.00 | 10 | 1015.1 |
| 20260901164320 | 70 | 189 | 0.0 | 1.0 | 0.00 | 0.00 | 0.00 | 10 | 1014.8 |
| 20260901163814 | 71 | 166 | 0.0 | 0.0 | 0.00 | 0.00 | 0.00 | 10 | 1015.2 |
| 20260901163309 | 70 | 181 | 0.0 | 0.0 | 0.00 | 0.00 | 0.00 | 10 | 1015.2 |
| 20260901162804 | 69 | 155 | 0.0 | 1.0 | 0.00 | 0.00 | 0.00 | 10 | 1015.3 |
| 20260901162306 | 69 | 162 | 0.0 | 2.0 | 0.00 | 0.00 | 0.00 | 10 | 1015.1 |
| 20260901161802 | 70 | 158 | 0.0 | 1.0 | 0.00 | 0.00 | 0.00 | 10 | 1015.3 |
| 20260901161256 | 69 | 114 | 0.0 | 0.0 | 0.00 | 0.00 | 0.00 | 10 | 1015.1 |
| 20260901160752 | 69 | 176 | 0.0 | 0.0 | 0.00 | 0.00 | 0.00 | 10 | 1015.2 |
| 20260901160248 | 67 | 122 | 0.0 | 0.0 | 0.00 | 0.00 | 0.00 | 10 | 1015.3 |
| 20260901155747 | 67 | 137 | 0.0 | 0.0 | 0.00 | 0.00 | 0.00 | 10 | 1015.4 |
| 20260901155242 | 67 | 192 | 0.0 | 0.0 | 0.00 | 0.00 | 0.00 | 10 | 1015.3 |
| 20260901154738 | 67 | 101 | 0.0 | 0.0 | 0.00 | 0.00 | 0.00 | 10 | 1015.4 |
| 20260901154232 | 68 | 74 | 0.0 | 0.0 | 0.00 | 0.00 | 0.00 | 10 | 1015.6 |
| 20260901153727 | 66 | 83 | 0.0 | 0.0 | 0.00 | 0.00 | 0.00 | 10 | 1015.6 |
| 20260901153226 | 66 | 89 | 0.0 | 0.0 | 0.00 | 0.00 | 0.00 | 10 | 1015.6 |
| 20260901152721 | 65 | 91 | 0.0 | 0.0 | 0.00 | 0.00 | 0.00 | 10 | 1015.7 |
| 20260901152220 | 66 | 55 | 0.0 | 0.0 | 0.00 | 0.00 | 0.00 | 10 | 1015.7 |
| 20260901151715 | 66 | 63 | 0.0 | 0.0 | 0.00 | 0.00 | 0.00 | 10 | 1015.6 |
| 20260901151215 | 64 | 70 | 0.0 | 0.0 | 0.00 | 0.00 | 0.00 | 10 | 1015.8 |
| 20260901150709 | 64 | 77 | 0.0 | 0.0 | 0.00 | 0.00 | 0.00 | 10 | 1015.6 |
| 20260901150207 | 63 | 62 | 0.0 | 0.0 | 0.00 | 0.00 | 0.00 | 10 | 1015.7 |
| 20260901145705 | 62 | 58 | 0.0 | 0.0 | 0.00 | 0.00 | 0.00 | 10 | 1015.6 |
| 20260901145200 | 62 | 61 | 0.0 | 0.0 | 0.00 | 0.00 | 0.00 | 10 | 1015.6 |
| 20260901144655 | 60 | 64 | 0.0 | 0.0 | 0.00 | 0.00 | 0.00 | 10 | 1015.5 |
| 20260901144150 | 57 | 52 | 0.0 | 0.0 | 0.00 | 0.00 | 0.00 | 10 | 1015.8 |
| 20260901143645 | 56 | 46 | 0.0 | 0.0 | 0.00 | 0.00 | 0.00 | 10 | 1015.5 |
| 20260901143142 | 56 | 52 | 0.0 | 0.0 | 0.00 | 0.00 | 0.00 | 10 | 1015.5 |
| 20260901142638 | 56 | 51 | 0.0 | 0.0 | 0.00 | 0.00 | 0.00 | 10 | 1015.6 |
| 20260901142137 | 56 | 59 | 0.0 | 0.0 | 0.00 | 0.00 | 0.00 | 10 | 1015.5 |
| 20260901141632 | 57 | 63 | 0.0 | 0.0 | 0.00 | 0.00 | 0.00 | 10 | 1015.6 |
| 20260901141131 | 54 | 56 | 0.0 | 0.0 | 0.00 | 0.00 | 0.00 | 10 | 1015.4 |
| 20260901140630 | 53 | 51 | 0.0 | 0.0 | 0.00 | 0.00 | 0.00 | 10 | 1015.4 |
| 20260901140129 | 52 | 56 | 0.0 | 0.0 | 0.00 | 0.00 | 0.00 | 10 | 1015.3 |
| 20260901135624 | 51 | 54 | 0.0 | 0.0 | 0.00 | 0.00 | 0.00 | 10 | 1015.3 |
| 20260901135119 | 50 | 46 | 0.0 | 0.0 | 0.00 | 0.00 | 0.00 | 10 | 1015.5 |
| 20260901134615 | 50 | 42 | 0.0 | 0.0 | 0.00 | 0.00 | 0.00 | 10 | 1015.5 |
| 20260901134110 | 49 | 38 | 0.0 | 0.0 | 0.00 | 0.00 | 0.00 | 10 | 1015.3 |
| 20260901133609 | 48 | 41 | 0.0 | 0.0 | 0.00 | 0.00 | 0.00 | 10 | 1015.3 |
| 20260901133108 | 48 | 37 | 0.0 | 0.0 | 0.00 | 0.00 | 0.00 | 10 | 1015.3 |
| 20260901132603 | 47 | 8 | 0.0 | 0.0 | 0.00 | 0.00 | 0.00 | 10 | 1015.3 |
| 20260901132056 | 46 | 4 | 0.0 | 0.0 | 0.00 | 0.00 | 0.00 | 10 | 1015.4 |
| 20260901131551 | 44 | 25 | 0.0 | 0.0 | 0.00 | 0.00 | 0.00 | 10 | 1015.5 |
| 20260901131045 | 45 | 8 | 0.0 | 0.0 | 0.00 | 0.00 | 0.00 | 10 | 1015.4 |
| 20260901130540 | 45 | 12 | 0.0 | 0.0 | 0.00 | 0.00 | 0.00 | 10 | 1015.4 |
| 20260901130039 | 44 | 2 | 0.0 | 0.0 | 0.00 | 0.00 | 0.00 | 10 | 1015.3 |
| 20260901125537 | 44 | 349 | 0.0 | 0.0 | 0.00 | 0.00 | 0.00 | 10 | 1015.3 |
| 20260901125033 | 42 | 13 | 0.0 | 0.0 | 0.00 | 0.00 | 0.00 | 10 | 1015.4 |
| 20260901124532 | 42 | 16 | 0.0 | 0.0 | 0.00 | 0.00 | 0.00 | 10 | 1015.5 |
| 20260901124027 | 42 | 10 | 0.0 | 0.0 | 0.00 | 0.00 | 0.00 | 10 | 1015.4 |
| 20260901123522 | 43 | 25 | 0.0 | 0.0 | 0.00 | 0.00 | 0.00 | 10 | 1015.5 |
| 20260901123016 | 44 | 33 | 0.0 | 0.0 | 0.00 | 0.00 | 0.00 | 10 | 1015.4 |
| 20260901122515 | 46 | 10 | 0.0 | 0.0 | 0.00 | 0.00 | 0.00 | 10 | 1015.5 |
| 20260901122014 | 47 | 40 | 0.0 | 0.0 | 0.00 | 0.00 | 0.00 | 10 | 1015.5 |
| 20260901121508 | 47 | 46 | 0.0 | 0.0 | 0.00 | 0.00 | 0.00 | 10 | 1015.4 |
| 20260901121003 | 47 | 39 | 0.0 | 0.0 | 0.00 | 0.00 | 0.00 | 10 | 1015.5 |
| 20260901120458 | 47 | 53 | 0.0 | 0.0 | 0.00 | 0.00 | 0.00 | 10 | 1015.4 |
| 20260901115953 | 47 | 42 | 0.0 | 0.0 | 0.00 | 0.00 | 0.00 | 10 | 1015.6 |
| 20260901115448 | 47 | 45 | 0.0 | 0.0 | 0.00 | 0.00 | 0.00 | 10 | 1015.5 |
| 20260901114946 | 48 | 51 | 0.0 | 0.0 | 0.00 | 0.00 | 0.00 | 10 | 1015.5 |
| 20260901114441 | 49 | 48 | 0.0 | 0.0 | 0.00 | 0.00 | 0.00 | 10 | 1015.6 |
| 20260901113939 | 49 | 50 | 0.0 | 0.0 | 0.00 | 0.00 | 0.00 | 10 | 1015.8 |
| 20260901113438 | 49 | 44 | 0.0 | 0.0 | 0.00 | 0.00 | 0.00 | 10 | 1015.7 |
| 20260901112934 | 48 | 39 | 0.0 | 0.0 | 0.00 | 0.00 | 0.00 | 10 | 1015.5 |
| 20260901112429 | 48 | 10 | 0.0 | 0.0 | 0.00 | 0.00 | 0.00 | 10 | 1015.7 |
| 20260901111924 | 48 | 29 | 0.0 | 0.0 | 0.00 | 0.00 | 0.00 | 10 | 1015.6 |
| 20260901111423 | 48 | 42 | 0.0 | 0.0 | 0.00 | 0.00 | 0.00 | 10 | 1015.6 |
| 20260901110921 | 48 | 47 | 0.0 | 0.0 | 0.00 | 0.00 | 0.00 | 10 | 1015.6 |
| 20260901110417 | 48 | 47 | 0.0 | 0.0 | 0.00 | 0.00 | 0.00 | 10 | 1015.5 |
| 20260901105913 | 48 | 45 | 0.0 | 0.0 | 0.00 | 0.00 | 0.00 | 10 | 1015.9 |
| 20260901105408 | 48 | 22 | 0.0 | 0.0 | 0.00 | 0.00 | 0.00 | 10 | 1015.7 |
| 20260901104904 | 48 | 42 | 0.0 | 0.0 | 0.00 | 0.00 | 0.00 | 10 | 1015.6 |
| 20260901104359 | 48 | 21 | 0.0 | 0.0 | 0.00 | 0.00 | 0.00 | 10 | 1015.5 |
| 20260901103854 | 48 | 28 | 0.0 | 0.0 | 0.00 | 0.00 | 0.00 | 10 | 1015.7 |
| 20260901103348 | 49 | 33 | 0.0 | 0.0 | 0.00 | 0.00 | 0.00 | 10 | 1015.8 |
| 20260901102843 | 49 | 34 | 0.0 | 0.0 | 0.00 | 0.00 | 0.00 | 10 | 1015.9 |
| 20260901102338 | 49 | 39 | 0.0 | 0.0 | 0.00 | 0.00 | 0.00 | 10 | 1015.9 |
| 20260901101834 | 49 | 30 | 0.0 | 0.0 | 0.00 | 0.00 | 0.00 | 10 | 1015.8 |
| 20260901101333 | 48 | 36 | 0.0 | 0.0 | 0.00 | 0.00 | 0.00 | 10 | 1016.1 |
| 20260901100832 | 49 | 43 | 0.0 | 0.0 | 0.00 | 0.00 | 0.00 | 10 | 1015.8 |
| 20260901100327 | 48 | 48 | 0.0 | 0.0 | 0.00 | 0.00 | 0.00 | 10 | 1016.1 |
| 20260901095827 | 49 | 58 | 0.0 | 0.0 | 0.00 | 0.00 | 0.00 | 10 | 1015.9 |
| 20260901095324 | 50 | 51 | 0.0 | 0.0 | 0.00 | 0.00 | 0.00 | 10 | 1015.8 |
| 20260901094818 | 50 | 53 | 0.0 | 0.0 | 0.00 | 0.00 | 0.00 | 10 | 1015.9 |
| 20260901094313 | 50 | 50 | 0.0 | 0.0 | 0.00 | 0.00 | 0.00 | 10 | 1015.8 |
| 20260901093808 | 50 | 36 | 0.0 | 0.0 | 0.00 | 0.00 | 0.00 | 10 | 1016.2 |
| 20260901093307 | 50 | 51 | 0.0 | 0.0 | 0.00 | 0.00 | 0.00 | 10 | 1015.9 |
| 20260901092803 | 50 | 55 | 0.0 | 0.0 | 0.00 | 0.00 | 0.00 | 10 | 1015.9 |
| 20260901092259 | 50 | 55 | 0.0 | 0.0 | 0.00 | 0.00 | 0.00 | 10 | 1015.8 |
| 20260901091755 | 51 | 65 | 0.0 | 0.0 | 0.00 | 0.00 | 0.00 | 10 | 1016.1 |
| 20260901091249 | 50 | 63 | 0.0 | 0.0 | 0.00 | 0.00 | 0.00 | 10 | 1016.1 |
| 20260901090744 | 51 | 62 | 0.0 | 0.0 | 0.00 | 0.00 | 0.00 | 10 | 1015.9 |
| 20260901090239 | 51 | 64 | 0.0 | 0.0 | 0.00 | 0.00 | 0.00 | 10 | 1015.9 |
| 20260901085735 | 51 | 63 | 0.0 | 0.0 | 0.00 | 0.00 | 0.00 | 10 | 1016.1 |
| 20260901085230 | 51 | 67 | 0.0 | 0.0 | 0.00 | 0.00 | 0.00 | 10 | 1016.1 |
| 20260901084727 | 51 | 66 | 0.0 | 0.0 | 0.00 | 0.00 | 0.00 | 10 | 1015.9 |
| 20260901084223 | 52 | 77 | 0.0 | 0.0 | 0.00 | 0.00 | 0.00 | 10 | 1016.1 |
| 20260901083717 | 51 | 80 | 0.0 | 0.0 | 0.00 | 0.00 | 0.00 | 10 | 1015.9 |
| 20260901083216 | 50 | 76 | 0.0 | 0.0 | 0.00 | 0.00 | 0.00 | 10 | 1016.1 |
| 20260901082715 | 54 | 63 | 0.0 | 0.0 | 0.00 | 0.00 | 0.00 | 10 | 1016.1 |
| 20260901082211 | 53 | 63 | 0.0 | 0.0 | 0.00 | 0.00 | 0.00 | 10 | 1016.2 |
| 20260901081707 | 53 | 63 | 0.0 | 0.0 | 0.00 | 0.00 | 0.00 | 10 | 1015.8 |
| 20260901081206 | 52 | 62 | 0.0 | 0.0 | 0.00 | 0.00 | 0.00 | 10 | 1015.9 |
| 20260901080701 | 53 | 57 | 0.0 | 0.0 | 0.00 | 0.00 | 0.00 | 10 | 1016.1 |
| 20260901080200 | 53 | 60 | 0.0 | 0.0 | 0.00 | 0.00 | 0.00 | 10 | 1015.9 |
| 20260901075655 | 53 | 48 | 0.0 | 0.0 | 0.00 | 0.00 | 0.00 | 10 | 1015.8 |
| 20260901075154 | 53 | 49 | 0.0 | 0.0 | 0.00 | 0.00 | 0.00 | 10 | 1015.8 |
| 20260901074654 | 52 | 47 | 0.0 | 0.0 | 0.00 | 0.00 | 0.00 | 10 | 1016.1 |
| 20260901074149 | 52 | 47 | 0.0 | 0.0 | 0.00 | 0.00 | 0.00 | 10 | 1016.2 |
| 20260901073645 | 52 | 37 | 0.0 | 0.0 | 0.00 | 0.00 | 0.00 | 10 | 1016.1 |
| 20260901073141 | 54 | 37 | 0.0 | 0.0 | 0.00 | 0.00 | 0.00 | 10 | 1016.3 |
| 20260901072636 | 53 | 36 | 0.0 | 0.0 | 0.00 | 0.00 | 0.00 | 10 | 1016.1 |
| 20260901072131 | 55 | 48 | 0.0 | 0.0 | 0.00 | 0.00 | 0.00 | 10 | 1016.2 |